Regional Weather Roundup
Issued by NWS

Home | Current Version | Previous Version | Graphics & Text | Print | Product List | Glossary On
Versions: 1 2 3 4 5 6 7 8 9 10 11 12 13 14 15 16 17 18 19 20 21 22 23 24 25 26 27 28 29 30 31 32 33 34 35 36 37 38 39 40 41 42 43 44 45 46 47 48 49 50
000
ASUS43 KMPX 051010
RWRMN
WEATHER ROUNDUP FOR MINNESOTA
NATIONAL WEATHER SERVICE TWIN CITIES/CHANHASSEN MN
500 AM CDT SUN JUL 05 2015


NOTE: "FAIR" INDICATES FEW OR NO CLOUDS BELOW 12,000 FEET WITH NO
SIGNIFICANT WEATHER AND/OR OBSTRUCTIONS TO VISIBILITY. N/A MEANS
CURRENT SKY AND/OR WEATHER CONDITIONS ARE NOT AVAILABLE.

MNZ060>063-068>070-051100-
   Twin Cities Metro

CITY           SKY/WX    TMP DP  RH WIND       PRES   REMARKS
TWIN CITIES    PTCLDY    67  59  75 SE6       29.93S
ST PAUL        CLEAR     65  60  84 SE8       29.93S
CRYSTAL        CLEAR     67  59  75 S7        29.91S
BLAINE         CLEAR     66  61  82 SE7       29.92F
LAKEVILLE      CLEAR     61  57  88 SE3       29.94S
EDEN PRAIRIE   CLEAR     66  59  78 S7        29.91F
SOUTH ST PAUL  CLEAR     65  59  81 SE5       29.93S
LAKE ELMO      FAIR      63  61  94 S6        29.95F
$$
MNZ001>005-007-008-013>017-022>024-027-028-051100-
   Northwest Minnesota

CITY           SKY/WX    TMP DP  RH WIND       PRES   REMARKS
BEMIDJI        TSTM      63  62  96 CALM      29.88F
HALLOCK        MOCLDY    64  63  94 S7        29.74S
ROSEAU         CLOUDY    64  59  82 SE10      29.77F
WARROAD        CLOUDY    64  61  88 S14G20    29.78S
THIEF RVR FALL CLOUDY    64  63  94 SE12      29.77F
CROOKSTON      TSTM      66  66 100 E3        29.82R
FOSSTON        CLOUDY    63  61  94 E8        29.80F
DETROIT LAKES  CLOUDY    70  64  83 SE9       29.82F
MOORHEAD       CLOUDY    70  64  83 S15G21    29.76F
PARK RAPIDS    CLOUDY    69  64  84 NE9       29.88R HAZE
MAHNOMEN       FAIR      69  63  81 E13       29.81F
$$
MNZ006-009>011-018-025>026-051100-
   North Central Minnesota

CITY           SKY/WX    TMP DP  RH WIND       PRES   REMARKS
BAUDETTE       CLOUDY    64  61  90 S10       29.80F
INTL FALLS     LGT RAIN  65  63  93 SW10G21   29.83S FOG
WASKISH        CLOUDY    66  64  94 S3        29.84F
BIG FORK       CLOUDY    64  63  94 CALM      29.89R FOG
LONGVILLE      CLOUDY    66  63  88 S3        29.87R
GRAND RAPIDS   CLOUDY    63  61  94 SE5       29.89S
CRANE LAKE     CLOUDY    63  59  88 S5        29.87R
ORR            CLOUDY    63  57  82 CALM      29.85S
COOK           CLOUDY    66  61  82 S6        29.88F
WALKER         PTSUNNY   68  64  85 NW3       29.89R
$$
MNZ012-019>021-037-051100-
   Northeast Minnesota

CITY           SKY/WX    TMP DP  RH WIND       PRES   REMARKS
DULUTH         MOCLDY    57  53  86 SE6       29.93F
ELY            MOCLDY    64  61  88 SW8       29.89F
HIBBING        MOCLDY    56  55  97 SE5       29.90F FOG
DULUTH HARBOR  PTCLDY    61  57  88 NE6       29.94S
TWO HARBORS    PTCLDY    55  52  88 CALM      29.93R
SILVER BAY     PTCLDY    54  52  94 CALM      29.92F FOG
GRAND MARAIS     N/A     49  47  93 SW3       29.91S
G MARAIS ARPRT PTCLDY    54  50  87 CALM      29.93F FOG
$$
MNZ029>031-032-039>041-046>048-054>057-064-051100-
   West Central Minnesota

CITY           SKY/WX    TMP DP  RH WIND       PRES   REMARKS
FERGUS FALLS   CLOUDY    70  63  78 S12       29.81S
WHEATON        MOCLDY    66  63  88 SE9       29.82S
MORRIS         PTCLDY    66  63  88 SE10      29.83S FOG
ALEXANDRIA     MOCLDY    66  62  87 SE8       29.88R
ELBOW LAKE     FAIR      66  63  89 SE13      29.82F
WADENA         CLOUDY    64  63  94 SE8       29.85S FOG
GLENWOOD       MOCLDY    64  61  88 SE9       29.88S
APPLETON       MOCLDY    68  63  83 SE5       29.84R
BENSON         PTCLDY    66  61  82 S7        29.85F
ORTONVILLE     MOCLDY    66  63  88 SE8       29.82S
MADISON        MOCLDY    66  63  88 S6        29.84S
WILLMAR        FAIR      66  63  88 SE7       29.89S
$$
MNZ033>034-036-042>043-049>051-058-059-051100-
   Central Minnesota

CITY           SKY/WX    TMP DP  RH WIND       PRES   REMARKS
ST CLOUD       CLEAR     62  60  93 SE6       29.91R
SAUK CENTRE    FAIR      62  60  94 SE5       29.89R
PAYNESVILLE    PTCLDY    63  59  88 SE8       29.90S
AITKIN         MOCLDY    64  59  82 S6        29.87F
PINE RIVER     MOCLDY    64  63  94 SE5       29.91S FOG
BRAINERD       MOCLDY    63  61  93 S5        29.89S FOG
STAPLES        MOCLDY    64  63  94 S6        29.87S
LONG PRAIRIE   FAIR      61  61 100 SE5       29.90R FOG
LITTLE FALLS   PTCLDY    63  59  88 SE5       29.90R FOG
LITCHFIELD     CLEAR     66  63  88 SE6       29.90S
BUFFALO        CLEAR     65  59  79 S5        29.93R
MAPLE LAKE     CLEAR     64  61  90 S3        29.93R
$$
MNZ037-044-045-052-053-051100-
   East Central Minnesota

CITY           SKY/WX    TMP DP  RH WIND       PRES   REMARKS
PRINCETON      CLEAR     64  61  88 SE5       29.91S
MORA           PTCLDY    61  55  82 CALM      29.93R
CAMBRIDGE      PTCLDY    66  57  72 CALM      29.90S
RUSH CITY      PTCLDY    64  60  88 S6        29.92S
MOOSE LAKE       N/A     55  55 100 CALM      29.91S FOG
HINCKLEY       FAIR      63  63 100 CALM      29.93R FOG
CLOQUET        PTCLDY    55  55 100 SE3       29.93S FOG
MCGREGOR       PTCLDY    63  61  94 SE6       29.90F
$$
MNZ071>073-080-081-089-090-097-098-051100-
   Southwest Minnesota

CITY           SKY/WX    TMP DP  RH WIND       PRES   REMARKS
MONTEVIDEO     PTCLDY    66  63  88 S9        29.85F
GRANITE FALLS  MOCLDY    65  61  86 SE7       29.88S
CANBY          CLOUDY    72  62  71 SW12G18   29.85S
MARSHALL       CLOUDY    72  59  64 S9        29.85S
REDWOOD FALLS  MOCLDY    64  60  87 S9        29.88R
OLIVIA         MOCLDY    61  55  82 SE7       29.88R
PIPESTONE      CLOUDY    66  63  88 S10       29.88S
WINDOM         PTCLDY    66  59  77 S8        29.90R
WORTHINGTON    CLOUDY    64  57  77 S12       29.91R
JACKSON        PTCLDY    64  59  82 S9        29.92R
TRACY          CLOUDY    69  62  79 S12       29.87S
SLAYTON        CLOUDY    68  62  81 S9        29.90R
$$
MNZ065>067-074>077-082>085-091>093-051100-
   South Central Minnesota

CITY           SKY/WX    TMP DP  RH WIND       PRES   REMARKS
MANKATO        CLEAR     63  57  82 S8        29.93R
NEW ULM        CLEAR     63  61  94 SE8       29.90R
ST JAMES       CLEAR     64  61  88 SE8       29.92R
FAIRMONT       CLEAR     63  55  77 S8        29.93R
GLENCOE        CLEAR     65  62  90 SE5       29.91R
FARIBAULT      CLEAR     64  59  82 S5        29.95R
OWATONNA       CLEAR     64  57  77 S9        29.95S
WASECA         CLEAR     63  57  82 SE6       29.95S
ALBERT LEA     CLEAR     64  59  82 S7        29.95S
$$
MNZ078>079-086>088-094>096-051100-
   Southeast Minnesota

CITY           SKY/WX    TMP DP  RH WIND       PRES   REMARKS
ROCHESTER      CLEAR     60  57  89 S7        30.00R
RED WING       CLEAR     66  59  77 CALM      29.95S
STANTON        CLEAR     64  59  82 S6        29.93F
DODGE CENTER   CLEAR     63  59  88 S8        29.97S
WINONA         CLEAR     63  61  94 CALM      30.00R
AUSTIN         CLEAR     63  59  88 S6        29.97F
PRESTON        CLEAR     61  57  87 S6        30.01R
$$
ABBREVIATIONS USED IN REMARKS
   TC - TEMPERATURES IN CELSIUS
  WCI - WIND CHILL INDEX
   HX - HEAT INDEX
  VSB - VISIBILITY
$$


USA.gov is the U.S. government's official web portal to all federal, state and local government web resources and services.